User: anonymous   Login
Location: Unspecified
(0.0000°N, 0.0000°E)
Time: 23:33:25
(UTC+00:00)
Language:

WGS 6 (USA 244) - Orbit

View from above orbital plane
View from above orbital plane
View from above satellite
View from above satellite

Ground track
Ground track

The orbit data is extracted from the following two-line orbital elements,

1 39222U 13041A   18124.92206389 0.00000000  00000-0  00000-0 0    05
2 39222   0.0250  59.5811 0002933  14.9805 345.0834  1.00270000    07
Epoch (UTC): 04 May 2018 22:07:46
Eccentricity: 0.0002933
inclination: 0.0250°
perigee height: 35774 km
apogee height: 35799 km
right ascension of ascending node: 59.5811°
argument of perigee: 14.9805°
revolutions per day: 1.00270000
mean anomaly at epoch: 345.0834°
orbit number at epoch: 0

The dashed part of the orbit path shows where the satellite is in the earth's shadow,  

DLR